Weather in Lisets

Ukraine / Ivano-Frankovsk District     48°52′17″N   24°36′16″E
temp.,
°C
wind,
m/s
gust,
m/s
humid.,
%
clouds,
%
prec.,
mm/h
press.,
hPa
HPBL,
m
15 april, thu
thu1500:00−1wnw3994100 0.1 1018541
03:00−1wnw3893100 0.1 1018583
06:000wnw3893100 0.1 1018521
09:00+1nw3683100 0.2 1018603
12:00+3nnw4477100 0.1 1017794
15:00+5nnw4573100 0.2 1017934
18:00+3nnw4886100 0.4 1017682
21:00+1nnw3892100 0.9 1018438
16 april, fri
fri1600:00+1nw2494100 0.2 1018203
03:000w1293100 0.2 101785
06:000w1288100 0.0 101740
09:00+4wnw3867100 0.0 1016927
12:00+8wnw4653100 0.0 10151491
15:00+9w4552100 0.0 10151503
18:00+7wsw2760100 0.0 10161289
21:00+4ssw2471100 0.0 101786
17 april, sat
sat1700:00+3sw238193 0.0 101884
03:00+2sw228299 0.0 101926
06:00+1ssw118629 0.0 101919
09:00+4nne017061 0.0 1020344
12:00+9ne225754 0.0 10191174
15:00+8nne3261100 0.0 1019963
18:00+7ne2374100 0.0 1019629
21:00+5ne2486100 0.0 1020285
18 april, sun
sun1800:00+4ne1292100 0.1 1020193
03:00+3ne1294100 0.1 1020148
06:00+3ene1294100 0.0 1020179
09:00+4e2389100 0.0 1019414
12:00+7ese4571100 0.0 1018927
15:00+9ese4666100 0.1 10171270
18:00+9ese3569100 0.1 1016630
21:00+7se3783100 0.5 1017268
19 april, mon
mon1900:00+5se4987100 0.3 1017720
03:00+5ese3797100 1.6 1016893
06:00+5ene2599100 1.1 1015667
09:00+6e4798100 3.1 10151057
12:00+6e4997100 2.0 10141100
15:00+6ese3694100 2.9 10141009
18:00+6nw1193100 0.6 101287
21:00+6nw2396100 0.9 1011107